[[{"header":{"parameterUnit":"m.s-1","parameterCategory":1,"la1":30.2991,"la2":30.254,"lo1":-89.0895,"lo2":-89.0444,"dy":0.0017,"dx":0.0017,"nx":28,"ny":28,"refTime":"2025-03-07T03:00:00:Z","depth":0,"parameterNumber":2,"parameterNumberName":"U-component_of_WINDS"},"data":[0,0,0,0,0,0,0,0,0,0,0,0,0,0,0,0,0,0,0,0,0,0,0,0,0,0,0,0,0,0,0,0,0,0,0,0,0,0,0,0,0,0,0,0,0,0,0,0,0,0,0,0,0,0,0,0,0,0,0.3075,0.3076,0,0.3116,0.3117,0.3117,0.3114,0.3113,0.3113,0.3112,0.3153,0.3155,0.3156,0,0,0,0,0,0,0,0,0,0,0,0,0,0.2993,0.2995,0.3075,0.3076,0.3076,0.3116,0.3117,0.3117,0.3114,0.3113,0.3113,0.3112,0.3153,0.3155,0.3157,0,0,0,0,0,0,0,0,0,0,0,0,0,0.3031,0.2995,0.3075,0.3079,0.308,0.3116,0.3117,0.3117,0.3114,0.3113,0.3113,0.3112,0.3152,0.3154,0.3157,0.319,0,0,0.3164,0.3165,0,0,0,0,0,0,0,0,0.3029,0.3034,0.3078,0.3079,0.308,0.3109,0.3103,0.3142,0.3115,0.3101,0.3112,0.3111,0.3139,0.3143,0.3152,0.3192,0.3194,0.3165,0.3166,0.3167,0.3168,0,0,0,0,0,0,0,0.3026,0.3032,0.3091,0.3079,0.308,0.3079,0.3083,0.311,0.3125,0.3102,0.3102,0.3107,0.3139,0.315,0.3153,0.3195,0.3165,0.3167,0.3168,0.3169,0.3265,0.3266,0,0,0,0,0,0,0.3023,0.303,0.309,0.3093,0.3052,0.3081,0.3086,0.3101,0.3125,0.3127,0.3108,0.3107,0.3146,0.315,0.3155,0.3197,0.3167,0.317,0.3171,0.3264,0.3266,0.3267,0,0,0,0,0,0,0.3021,0.3028,0.3088,0.3061,0.3069,0.3084,0.31,0.3102,0.3113,0.3129,0.3131,0.3116,0.3146,0.3151,0.3182,0.3198,0.3171,0.3173,0.3263,0.3265,0.3266,0.328,0,0,0,0,0,0,0.3018,0.3027,0.304,0.3062,0.307,0.3115,0.3101,0.3103,0.3117,0.3116,0.3137,0.314,0.3145,0.3178,0.3184,0.3201,0.3175,0.3262,0.3264,0.3266,0.3278,0.3282,0.3285,0,0,0,0,0,0.3016,0.3042,0.3041,0.3048,0.3087,0.3116,0.3121,0.3127,0.3118,0.3132,0.3142,0.3139,0.3195,0.3181,0.3188,0.3206,0.3261,0.3263,0.3265,0.3277,0.3281,0.3285,0,0,0,0,0,0,0.3022,0.3045,0.3044,0.3078,0.3096,0.3116,0.3133,0.3132,0.3151,0.315,0.3156,0.3161,0.3192,0.3202,0.3186,0.324,0.3227,0.323,0.3233,0.3237,0.324,0.3238,0.3177,0,0,0,0,0,0.3028,0.305,0.3068,0.3097,0.3105,0.3118,0.313,0.3134,0.3152,0.3159,0.3171,0.3188,0.321,0.3224,0.3244,0.3279,0.3284,0.3295,0.3298,0.3301,0.3304,0.3324,0.333,0.3275,0.3275,0.3275,0,0,0.3039,0.3054,0.3068,0.3099,0.3112,0.3135,0.3124,0.3148,0.3165,0.3162,0.3192,0.3202,0.3222,0.3255,0.327,0.3264,0.3321,0.3304,0.3306,0.3308,0.3327,0.3333,0.3337,0.3276,0.3276,0.3276,0,0,0.3072,0.3085,0.3111,0.3125,0.3146,0.3154,0.316,0.3181,0.3187,0.3218,0.3217,0.3237,0.3273,0.3287,0.3299,0.3338,0.3336,0.3344,0.3363,0.3382,0.3386,0.339,0.3405,0.341,0.3348,0.3348,0.3348,0,0.3083,0.3118,0.3124,0.3149,0.3163,0.3162,0.3189,0.3201,0.3228,0.3237,0.323,0.3277,0.3289,0.3327,0.3336,0.3345,0.3353,0.3343,0.3385,0.3389,0.3393,0.3407,0.3413,0.3349,0.3349,0.3348,0.3348,0,0.3132,0.3155,0.3174,0.32,0.3216,0.3241,0.3251,0.3266,0.3269,0.3277,0.3309,0.3324,0.3348,0.3357,0.3359,0.3395,0.339,0.3384,0.3371,0.3399,0.3413,0.3418,0.335,0.335,0.3349,0.3349,0,0,0.317,0.32,0.3207,0.3219,0.3242,0.3261,0.3286,0.331,0.3324,0.3342,0.3364,0.3395,0.339,0.3403,0.3406,0.3423,0.3454,0.3415,0.3416,0.3423,0.3496,0.3501,0.3507,0.3453,0.3454,0.3455,0.3494,0,0.3206,0.3252,0.3258,0.3299,0.3321,0.3321,0.3343,0.336,0.3368,0.3389,0.3398,0.3421,0.3411,0.342,0.3436,0.3447,0.3469,0.3444,0.3474,0.3475,0.347,0.3514,0.352,0.3556,0.35,0.3501,0.3501,0,0.3254,0.3275,0.3317,0.3339,0.3348,0.3368,0.3391,0.3411,0.3429,0.3435,0.345,0.3452,0.3478,0.3463,0.3499,0.3482,0.3495,0.3502,0.3503,0.3507,0.349,0.352,0.3568,0.3574,0.3509,0.3509,0.3508,0,0.3279,0.3317,0.3348,0.3359,0.3384,0.3398,0.3409,0.3427,0.3441,0.3461,0.3471,0.3493,0.3505,0.3523,0.353,0.3519,0.3567,0.3552,0.3572,0.3572,0.3583,0.3582,0.3635,0.3589,0.3589,0.3589,0.3589,0,0.3319,0.3346,0.336,0.3379,0.3409,0.3416,0.3445,0.3455,0.3472,0.3493,0.3493,0.3513,0.3521,0.3542,0.3548,0.3578,0.3583,0.3588,0.3589,0.3589,0.3588,0.3597,0.3595,0.359,0.359,0.359,0.359,0,0.3353,0.3363,0.3397,0.3418,0.3424,0.3445,0.3463,0.3482,0.349,0.3517,0.3524,0.3537,0.3562,0.3571,0.36,0.3604,0.3639,0.3638,0.3633,0.3634,0.3654,0.3652,0.3715,0.3724,0.3671,0.3672,0.3672,0,0.3378,0.3399,0.3422,0.3437,0.3449,0.3472,0.3487,0.3494,0.351,0.3533,0.3549,0.3574,0.3594,0.3634,0.3646,0.3669,0.3669,0.3689,0.3672,0.3671,0.367,0.3669,0.3672,0.3693,0.3693,0.3693,0.3694,0,0.3422,0.3427,0.3449,0.3473,0.3491,0.351,0.3529,0.354,0.3551,0.3568,0.3594,0.361,0.3641,0.3665,0.3689,0.37,0.3699,0.3699,0.3705,0.3705,0.3702,0.3705,0.3643,0.3698,0.3697,0.3697,0.3697,0.3697,0.3453,0.3472,0.3492,0.3517,0.3532,0.3549,0.3568,0.3579,0.3601,0.3627,0.363,0.3658,0.3677,0.3708,0.372,0.3742,0.3737,0.3745,0.3747,0.375,0.3752,0.3698,0.3746,0.3746,0.3746,0.3746,0.3746,0,0.3499,0.3512,0.3534,0.3561,0.358,0.3578,0.3598,0.3615,0.364,0.3657,0.3678,0.3707,0.3731,0.3746,0.377,0.3785,0.3785,0.3791,0.379,0.3793,0.3755,0.3748,0.379,0.379,0.379,0.379,0.379,0.379,0.3525,0.3557,0.3563,0.3603,0.3615,0.3643,0.3655,0.3671,0.3686,0.3719,0.374,0.3749,0.3766,0.3791,0.3813,0.3817,0.3826,0.3833,0.3836,0.38,0.3795,0.3791,0.3785,0.3834,0.3834,0.3872,0.3873,0.3873]},{"header":{"parameterUnit":"m.s-1","parameterCategory":1,"la1":30.2991,"la2":30.254,"lo1":-89.0895,"lo2":-89.0444,"dy":0.0017,"dx":0.0017,"nx":28,"ny":28,"refTime":"2025-03-07T03:00:00:Z","depth":0,"parameterNumber":3,"parameterNumberName":"V-component_of_WINDS"},"data":[0,0,0,0,0,0,0,0,0,0,0,0,0,0,0,0,0,0,0,0,0,0,0,0,0,0,0,0,0,0,0,0,0,0,0,0,0,0,0,0,0,0,0,0,0,0,0,0,0,0,0,0,0,0,0,0,0,0,1.5545,1.5547,0,1.5781,1.5784,1.5786,1.586,1.5859,1.5858,1.5857,1.6101,1.6109,1.6116,0,0,0,0,0,0,0,0,0,0,0,0,0,1.5159,1.5166,1.5544,1.5547,1.555,1.5781,1.5784,1.5787,1.5861,1.5859,1.5858,1.5857,1.6099,1.6108,1.6117,0,0,0,0,0,0,0,0,0,0,0,0,0,1.5354,1.5168,1.5544,1.5615,1.5623,1.578,1.5784,1.5788,1.5861,1.5859,1.5858,1.5856,1.6096,1.6107,1.6118,1.6222,0,0,1.6153,1.6158,0,0,0,0,0,0,0,0,1.5343,1.5368,1.5601,1.561,1.562,1.579,1.5738,1.5934,1.5861,1.5771,1.5857,1.5855,1.5999,1.6018,1.6066,1.6233,1.6244,1.6154,1.616,1.6165,1.6169,0,0,0,0,0,0,0,1.533,1.5359,1.5638,1.5605,1.5616,1.5636,1.5662,1.5775,1.5892,1.5779,1.5785,1.5811,1.6004,1.6055,1.6073,1.6247,1.6153,1.6163,1.617,1.6175,1.6513,1.6515,0,0,0,0,0,0,1.5304,1.5347,1.5631,1.5645,1.5475,1.5644,1.5673,1.5737,1.5891,1.5912,1.5813,1.5814,1.6037,1.6059,1.6081,1.6215,1.6165,1.6176,1.6182,1.6511,1.6514,1.6516,0,0,0,0,0,0,1.5295,1.5328,1.5621,1.5498,1.5537,1.5652,1.5724,1.5742,1.5794,1.5916,1.5938,1.5844,1.6036,1.6066,1.6187,1.6224,1.6181,1.6191,1.6508,1.6512,1.6515,1.6481,0,0,0,0,0,0,1.5284,1.5325,1.5365,1.5498,1.5543,1.5721,1.5726,1.5748,1.5813,1.5817,1.5951,1.5972,1.6037,1.6169,1.6198,1.6239,1.62,1.6506,1.651,1.6514,1.6479,1.6482,1.6485,0,0,0,0,0,1.527,1.5346,1.5366,1.54,1.5595,1.5723,1.5749,1.5823,1.5816,1.5858,1.5936,1.5967,1.6215,1.6181,1.6214,1.6259,1.6504,1.6509,1.6514,1.6478,1.6482,1.6485,0,0,0,0,0,0,1.5214,1.5364,1.5389,1.551,1.5603,1.5736,1.579,1.5824,1.5922,1.5922,1.6009,1.6039,1.6154,1.6219,1.6178,1.6368,1.6361,1.6372,1.6322,1.6327,1.633,1.6313,1.621,0,0,0,0,0,1.5216,1.5307,1.5433,1.5528,1.5574,1.5674,1.5732,1.5781,1.5881,1.5921,1.6009,1.6106,1.6206,1.627,1.6368,1.6488,1.652,1.6535,1.6538,1.654,1.655,1.662,1.6629,1.6532,1.6532,1.6532,0,0,1.522,1.5314,1.5366,1.5519,1.5597,1.5691,1.5706,1.5804,1.5875,1.5936,1.6057,1.6124,1.6238,1.6359,1.6417,1.6417,1.6584,1.6547,1.6547,1.6556,1.6626,1.6635,1.6643,1.6536,1.6535,1.6535,0,0,1.5277,1.5356,1.5445,1.5522,1.564,1.5706,1.5727,1.5855,1.5902,1.6024,1.6073,1.6158,1.6328,1.6408,1.647,1.6558,1.6591,1.6587,1.6604,1.6671,1.6679,1.6686,1.6719,1.673,1.6596,1.6596,1.6596,0,1.5268,1.541,1.5486,1.5582,1.5648,1.5708,1.5799,1.5871,1.6015,1.606,1.6057,1.6273,1.6353,1.6495,1.6516,1.6564,1.6593,1.6573,1.6672,1.668,1.6688,1.672,1.6732,1.6595,1.6595,1.6595,1.6595,0,1.5395,1.5492,1.555,1.5687,1.576,1.5853,1.5943,1.6008,1.6051,1.6117,1.6241,1.634,1.6461,1.6498,1.654,1.6646,1.6642,1.6654,1.6649,1.6694,1.6727,1.6739,1.6593,1.6594,1.6594,1.6594,0,0,1.5423,1.5602,1.5622,1.5685,1.582,1.5897,1.5993,1.611,1.6165,1.6262,1.6346,1.6489,1.6501,1.6572,1.6624,1.6683,1.6748,1.6688,1.6692,1.6697,1.6873,1.6864,1.6877,1.677,1.6772,1.6775,1.6864,0,1.5499,1.5672,1.5743,1.5884,1.5976,1.6034,1.6118,1.621,1.6275,1.6363,1.6435,1.6536,1.6544,1.6587,1.6648,1.6727,1.6785,1.6721,1.685,1.6854,1.6821,1.6894,1.6885,1.6964,1.6877,1.6879,1.6881,0,1.561,1.5708,1.5857,1.5982,1.6023,1.6097,1.6211,1.6294,1.64,1.6444,1.6523,1.6572,1.6676,1.6662,1.6808,1.6763,1.682,1.6867,1.6872,1.6888,1.6871,1.6914,1.6991,1.7004,1.6901,1.6899,1.6898,0,1.5618,1.5787,1.5899,1.5951,1.6099,1.615,1.6214,1.6318,1.6385,1.6484,1.6529,1.6639,1.67,1.6785,1.6862,1.6845,1.7002,1.6994,1.7042,1.704,1.7074,1.7071,1.7163,1.7107,1.7107,1.7106,1.7106,0,1.5695,1.5785,1.5905,1.5974,1.6077,1.6158,1.6257,1.6326,1.6418,1.6502,1.6559,1.6637,1.6734,1.6824,1.6886,1.6998,1.7025,1.7064,1.7079,1.706,1.7055,1.71,1.7097,1.711,1.7109,1.7108,1.7108,0,1.5722,1.5806,1.5932,1.6061,1.6096,1.6166,1.6277,1.6347,1.6415,1.6521,1.655,1.6656,1.6766,1.6852,1.6995,1.7036,1.7155,1.7171,1.7119,1.7128,1.7172,1.7167,1.7297,1.7319,1.7246,1.7247,1.7247,0,1.5767,1.5838,1.5974,1.6035,1.6098,1.6194,1.6262,1.6345,1.6414,1.654,1.6595,1.6709,1.6804,1.6977,1.7068,1.7178,1.7198,1.7236,1.7215,1.7194,1.7201,1.7197,1.7205,1.7239,1.724,1.724,1.724,0,1.5838,1.5876,1.5972,1.6082,1.6162,1.6253,1.6345,1.6392,1.6491,1.6566,1.6679,1.6752,1.6898,1.7011,1.7131,1.7198,1.7237,1.7246,1.7263,1.7245,1.7213,1.7233,1.7128,1.7243,1.7243,1.7242,1.7242,1.7242,1.5878,1.5943,1.605,1.6155,1.6233,1.6318,1.6391,1.6467,1.6562,1.6687,1.673,1.6847,1.6953,1.7117,1.7185,1.7278,1.728,1.7305,1.7311,1.7317,1.7316,1.7196,1.73,1.73,1.73,1.73,1.73,0,1.5953,1.6025,1.612,1.6248,1.6331,1.6358,1.6462,1.653,1.6632,1.6727,1.6819,1.695,1.7059,1.7159,1.7273,1.7329,1.735,1.7356,1.7354,1.737,1.7306,1.7281,1.7338,1.7338,1.7338,1.7338,1.7338,1.7338,1.6003,1.6116,1.6167,1.632,1.6391,1.6506,1.6563,1.6642,1.6719,1.6861,1.6953,1.7016,1.7114,1.7236,1.7338,1.7365,1.7405,1.7408,1.7439,1.7378,1.7374,1.7369,1.7346,1.7416,1.7416,1.7495,1.7496,1.7496]}]]